Wind_Speed
18 21 24 26 25 25 26 21 13 10 9 9 10 7 1 1 8 8 13 16 18 20 23 19 16 14 18 13 16 12 2 5 9 11 9 20 14 9 8 14 14 14 23 25 27
18 21 24 26 26 25 25 17 10 10 8 8 8 9 8 2 5 14 17 18 22 23 26 23 25 22 18 20 15 3 4 7 9 13 15 14 11 20 7 7 13 19 22 27 24
18 21 24 26 26 25 24 13 8 9 7 8 8 8 9 3 3 14 21 20 22 23 24 16 18 17 16 12 9 1 4 7 15 21 22 14 8 12 8 9 5 9 23 30 23
18 21 24 26 26 25 21 11 8 8 6 7 9 7 7 6 3 20 20 22 24 25 20 17 17 16 5 6 13 5 14 18 20 23 20 7 10 11 13 20 18 9 18 22 21
17 20 24 26 24 24 18 9 7 8 8 5 2 8 10 4 8 22 20 23 28 20 19 18 19 9 5 10 15 9 9 15 21 25 21 18 15 16 18 26 20 13 12 21 21
16 20 24 25 22 23 15 8 6 8 10 10 3 6 8 5 15 27 21 25 34 18 16 14 9 13 13 10 4 12 16 19 21 20 25 16 19 15 20 17 20 11 12 15 18
16 20 23 24 21 21 14 8 7 5 5 13 9 8 5 8 25 17 22 33 32 12 15 14 10 8 11 7 11 19 13 8 8 14 5 9 11 12 23 22 20 17 18 13 13
16 19 23 24 19 19 11 7 11 7 3 3 13 6 1 5 19 23 32 44 13 4 5 12 9 11 8 13 7 5 4 6 10 6 5 8 10 10 12 19 22 19 10 8 11
16 20 22 23 18 18 10 4 6 14 6 6 9 5 2 17 26 29 40 32 17 13 9 8 6 6 8 5 5 3 5 13 8 2 4 3 7 6 10 11 14 14 10 10 14
16 20 22 22 17 17 11 2 4 10 5 4 9 1 13 27 26 28 40 15 21 17 10 4 6 2 5 5 7 11 10 7 10 6 5 5 7 12 13 21 8 12 5 11 7
16 19 22 22 16 17 12 2 4 3 19 12 8 1 16 27 10 32 45 11 19 16 6 0 7 8 10 8 5 6 9 9 7 5 7 4 6 3 10 17 9 14 14 13 6
16 19 21 21 14 16 13 6 6 4 4 7 12 7 20 24 11 32 42 14 11 6 12 7 7 11 15 9 11 8 6 6 9 15 12 8 10 3 10 9 16 20 18 20 17
16 19 21 19 10 19 17 10 7 6 3 4 10 16 20 14 11 32 43 12 5 8 8 3 4 11 11 10 12 10 3 10 13 13 8 10 3 5 10 20 24 30 27 25 22
15 18 19 17 7 14 11 6 4 4 5 9 10 11 22 4 10 23 41 9 8 6 8 3 10 8 12 11 11 6 4 14 12 7 2 6 2 14 12 13 20 26 28 26 25
14 16 17 16 9 12 9 2 5 2 5 7 6 9 12 12 13 21 38 8 4 5 4 6 7 7 13 16 14 5 17 10 8 5 4 3 3 8 8 17 23 21 31 31 29
13 15 14 14 13 12 7 3 4 5 2 5 5 8 7 12 9 16 20 24 12 5 6 5 11 3 9 14 6 18 8 3 1 2 1 6 2 9 10 15 20 22 31 35 33
12 13 11 13 11 10 3 2 4 7 4 8 5 6 4 6 7 9 9 16 11 8 8 8 7 10 20 10 6 20 7 4 5 4 2 7 8 5 10 15 14 20 30 30 29
11 11 7 13 12 8 3 4 9 3 3 3 5 8 4 7 6 8 5 5 7 5 2 6 9 9 15 7 6 6 4 2 2 4 4 6 4 3 16 18 22 23 26 30 35
10 9 6 13 9 8 2 7 6 1 2 5 5 5 5 6 2 7 4 5 5 4 4 6 5 7 9 7 8 8 5 4 4 3 2 3 6 6 22 20 30 36 35 37 42
8 4 4 9 7 5 6 5 2 2 1 2 2 3 4 6 6 5 3 4 6 7 2 4 6 2 8 9 8 7 7 5 4 5 4 3 5 8 21 24 24 25 34 37 43
4 2 5 7 5 8 4 3 4 2 1 3 1 1 3 3 3 4 5 1 6 7 4 1 3 8 4 6 10 7 5 4 3 2 3 3 3 8 13 16 19 23 32 35 37
0 1 4 5 6 5 2 4 6 4 1 1 2 2 1 2 2 3 4 4 8 9 2 3 3 3 4 3 8 15 5 4 2 4 2 2 2 7 13 18 24 25 33 38 40
3 1 4 2 3 1 3 3 3 3 1 2 2 1 1 1 2 2 3 4 8 9 5 4 3 4 10 6 6 6 11 8 4 3 5 3 2 11 21 22 28 27 34 35 38
4 2 4 7 7 7 5 3 3 2 3 2 1 3 4 4 2 3 4 4 7 11 12 5 1 4 4 7 2 4 8 10 6 3 6 2 9 14 22 22 29 30 36 39 38
4 2 3 1 2 7 5 4 4 3 2 2 2 2 3 1 5 1 2 5 7 11 7 4 1 3 11 13 2 5 5 9 6 7 3 10 7 11 18 18 25 25 30 34 39
6 6 7 5 9 7 3 3 5 3 4 2 4 2 3 4 6 4 2 1 2 6 4 5 3 4 4 4 2 3 10 9 4 7 4 9 5 17 25 24 23 29 32 34 37
9 11 6 7 4 4 4 5 4 10 1 2 4 3 2 2 2 5 4 4 5 2 3 3 3 3 4 5 1 4 4 3 4 4 4 6 9 23 21 24 23 27 34 35 38
Wind_Direction
10 6 3 2 0 360 357 360 11 28 39 41 29 36 127 7 23 31 9 345 338 336 337 344 339 332 321 306 297 285 174 259 268 285 304 326 331 308 272 302 291 302 299 309 305
8 4 1 0 359 360 357 2 19 27 44 41 32 29 22 235 359 23 355 344 340 338 332 329 321 328 320 297 293 181 237 257 258 267 280 289 312 317 315 318 299 301 310 303 295
6 1 358 358 358 360 357 6 25 24 43 43 32 46 37 36 43 348 345 339 339 338 332 329 326 325 309 319 294 224 248 267 274 274 274 269 275 290 298 280 284 311 301 309 305
2 360 357 357 357 359 357 10 23 20 38 48 56 30 355 353 47 340 339 341 337 332 332 340 329 317 306 297 321 309 296 289 289 291 271 276 273 260 257 263 272 296 286 293 323
358 358 356 357 358 358 358 13 22 24 23 16 48 22 18 33 344 344 334 344 332 340 332 330 320 340 315 307 302 274 278 294 301 299 295 294 268 261 263 272 282 277 250 282 308
356 356 356 357 359 359 1 9 18 20 29 17 16 357 27 66 331 331 344 334 334 332 320 317 318 328 300 286 292 275 291 299 298 292 284 265 264 261 261 276 275 270 252 272 304
353 355 357 357 0 1 3 8 2 345 359 35 22 8 30 31 342 349 342 330 329 312 313 309 313 320 307 295 300 288 291 311 318 307 271 266 265 255 267 269 263 270 277 212 251
351 354 358 358 1 2 9 38 34 1 334 13 26 12 83 309 344 1 341 338 351 304 286 307 316 298 263 284 299 4 5 345 326 332 269 200 274 278 284 235 243 245 200 207 231
348 354 357 358 3 4 6 12 15 32 61 39 18 351 7 325 2 354 344 348 0 356 320 299 293 280 305 321 344 345 301 323 313 356 306 177 287 299 10 351 256 194 202 198 190
347 353 355 358 3 7 5 332 10 28 27 29 6 135 359 341 347 349 359 13 0 359 322 200 213 1 349 16 334 318 328 302 295 317 359 317 290 293 27 22 52 116 138 201 218
346 353 354 357 6 9 11 46 83 62 51 70 38 121 322 350 5 355 359 356 21 15 10 345 48 343 308 304 321 307 337 303 303 353 311 296 304 170 50 17 331 48 39 18 39
346 351 354 356 4 15 23 68 80 106 90 66 34 8 358 348 351 358 356 16 2 357 360 19 22 333 333 8 6 350 330 329 311 342 332 308 310 107 85 15 27 31 19 16 4
346 352 352 356 358 6 24 63 115 127 100 40 26 9 359 343 26 360 2 350 359 0 349 58 311 353 345 344 355 339 307 334 317 329 41 7 328 52 54 31 14 20 8 4 352
346 351 353 0 9 3 6 37 156 153 80 334 360 14 0 79 11 4 0 13 5 336 328 329 325 345 341 342 341 311 269 317 311 347 317 31 196 34 19 1 13 4 355 344 343
348 352 353 5 7 6 358 44 157 164 54 327 359 10 16 58 358 2 13 28 21 308 27 276 301 337 8 338 329 282 310 291 287 291 338 303 71 359 10 355 353 345 341 338 348
347 353 357 3 2 2 8 131 143 42 300 346 7 348 18 18 360 359 15 28 31 355 348 285 319 348 353 330 324 335 321 345 206 103 23 330 96 28 12 342 341 340 339 340 352
346 349 360 7 357 4 29 154 35 85 332 328 333 351 22 341 355 11 14 27 31 16 1 330 330 327 360 355 339 349 9 358 14 10 270 146 74 67 3 360 348 334 333 340 351
342 344 14 14 7 9 4 55 69 271 3 2 344 324 56 6 3 7 23 16 15 60 32 25 340 355 331 8 310 332 36 99 292 335 320 28 45 112 29 360 344 349 347 352 2
335 342 19 12 15 5 18 48 179 221 308 342 322 32 340 0 34 25 28 11 5 28 93 7 289 324 334 333 22 327 16 248 264 233 280 46 7 241 360 353 356 360 354 354 357
329 341 25 8 13 19 70 131 126 48 3 29 88 49 340 329 27 33 3 322 337 346 147 284 296 300 309 348 16 72 330 15 3 2 328 85 61 354 351 350 347 352 352 351 357
329 301 5 2 22 54 100 141 122 97 83 75 113 18 13 3 345 328 300 16 8 328 55 346 113 298 358 12 46 5 13 351 254 317 334 356 71 3 349 344 341 345 349 356 350
232 50 352 10 42 53 90 128 130 157 68 149 88 35 84 336 335 322 6 188 19 359 1 264 155 288 257 178 95 73 7 354 337 333 278 295 110 19 2 347 346 351 348 356 0
157 109 24 49 104 42 128 80 95 144 64 57 99 100 315 286 23 300 329 57 55 13 14 326 329 352 346 356 21 26 5 335 275 243 11 26 10 17 360 358 352 355 354 357 357
160 58 56 71 86 126 134 147 112 103 110 102 166 208 58 11 18 297 337 350 349 29 7 0 346 152 191 233 216 20 343 353 352 37 323 103 307 353 356 350 348 358 357 355 0
149 128 120 142 9 103 100 161 144 156 159 145 225 127 120 31 339 310 356 334 27 19 30 56 335 328 282 260 263 96 5 353 36 358 69 319 335 5 347 339 336 353 358 358 360
164 147 104 92 117 92 10 226 158 143 139 203 148 100 148 169 186 231 96 94 312 358 38 357 302 334 302 53 6 91 24 358 10 3 343 332 339 359 334 336 347 356 357 359 358
171 149 147 147 144 97 202 188 179 128 187 136 129 93 286 213 277 276 262 274 270 182 354 359 349 358 296 354 14 14 317 336 319 36 328 12 316 331 335 338 338 359 358 354 357
Height
1542 1539 1535 1532 1527 1524 1520 1516 1513 1512 1511 1511 1511 1510 1508 1507 1506 1504 1503 1504 1501 1497 1494 1490 1489 1486 1484 1480 1479 1477 1482 1486 1478 1472 1462 1463 1460 1454 1454 1449 1451 1453 1451 1448 1442
1542 1539 1535 1531 1527 1523 1519 1516 1514 1513 1511 1510 1509 1508 1507 1507 1507 1505 1505 1502 1500 1496 1492 1489 1486 1485 1483 1479 1476 1475 1478 1473 1469 1465 1461 1461 1460 1454 1452 1451 1449 1448 1446 1443 1437
1542 1539 1535 1531 1527 1522 1519 1516 1515 1513 1512 1511 1510 1509 1508 1507 1506 1506 1504 1501 1498 1494 1491 1488 1486 1484 1480 1477 1473 1472 1473 1465 1463 1461 1458 1457 1455 1455 1450 1449 1445 1445 1448 1441 1440
1542 1539 1535 1531 1527 1522 1519 1516 1514 1513 1512 1512 1511 1510 1509 1508 1511 1506 1503 1499 1496 1492 1489 1486 1485 1482 1480 1477 1473 1472 1466 1463 1459 1458 1454 1454 1452 1450 1450 1446 1445 1440 1445 1447 1441
1542 1539 1535 1530 1526 1522 1519 1517 1516 1514 1513 1511 1511 1510 1509 1508 1508 1504 1501 1498 1493 1489 1487 1485 1483 1481 1479 1478 1474 1470 1462 1459 1457 1453 1453 1451 1447 1445 1443 1440 1442 1445 1444 1440 1446
1542 1538 1535 1530 1525 1522 1519 1516 1515 1515 1513 1511 1510 1509 1508 1510 1509 1504 1500 1495 1491 1487 1485 1484 1483 1482 1477 1474 1473 1464 1460 1456 1451 1447 1446 1446 1441 1444 1435 1439 1437 1438 1436 1435 1440
1541 1538 1534 1529 1525 1521 1518 1516 1514 1513 1513 1512 1511 1509 1510 1513 1507 1502 1498 1492 1486 1484 1482 1482 1482 1482 1478 1471 1463 1462 1459 1453 1449 1443 1440 1439 1439 1436 1434 1431 1428 1431 1436 1439 1445
1539 1537 1533 1528 1524 1520 1518 1516 1515 1512 1511 1511 1512 1511 1510 1509 1507 1500 1495 1485 1480 1480 1480 1480 1480 1477 1476 1469 1462 1461 1460 1462 1444 1441 1437 1440 1438 1429 1432 1433 1432 1433 1433 1435 1438
1539 1536 1532 1527 1523 1519 1516 1515 1514 1513 1512 1511 1511 1512 1513 1510 1502 1500 1494 1483 1480 1479 1479 1480 1481 1477 1474 1474 1473 1467 1472 1462 1450 1438 1437 1435 1435 1425 1425 1427 1429 1433 1434 1436 1439
1537 1535 1531 1526 1522 1518 1515 1513 1514 1514 1512 1510 1511 1516 1514 1512 1507 1502 1492 1484 1480 1477 1475 1477 1477 1477 1475 1478 1480 1472 1463 1461 1456 1442 1438 1436 1434 1424 1426 1428 1423 1430 1435 1439 1437
1536 1533 1530 1525 1521 1518 1514 1512 1516 1517 1515 1518 1521 1521 1519 1516 1509 1502 1491 1484 1479 1478 1482 1476 1485 1488 1478 1468 1467 1468 1464 1460 1450 1443 1442 1435 1434 1426 1428 1429 1432 1431 1435 1431 1436
1535 1532 1528 1524 1521 1518 1515 1511 1514 1519 1520 1520 1518 1520 1520 1516 1510 1505 1498 1490 1489 1490 1483 1485 1493 1483 1476 1468 1467 1465 1467 1464 1449 1443 1441 1434 1431 1432 1435 1437 1435 1433 1436 1432 1425
1534 1531 1527 1523 1520 1519 1516 1514 1514 1517 1518 1522 1520 1519 1517 1517 1514 1508 1501 1496 1495 1493 1494 1491 1490 1482 1479 1476 1472 1469 1466 1462 1459 1446 1444 1438 1434 1436 1443 1444 1441 1439 1439 1440 1440
1533 1530 1527 1523 1521 1518 1517 1516 1516 1517 1532 1529 1523 1524 1519 1515 1517 1515 1507 1504 1502 1502 1496 1491 1486 1483 1480 1478 1474 1476 1460 1458 1451 1453 1452 1440 1434 1447 1451 1449 1448 1451 1448 1444 1443
1531 1528 1525 1521 1521 1518 1518 1516 1516 1519 1551 1530 1528 1527 1525 1523 1532 1520 1513 1504 1508 1506 1504 1498 1488 1485 1480 1477 1471 1469 1457 1454 1450 1453 1449 1444 1448 1468 1456 1452 1453 1453 1446 1441 1437
1529 1526 1523 1521 1520 1517 1515 1516 1518 1532 1560 1535 1531 1530 1528 1528 1527 1524 1518 1509 1507 1504 1503 1497 1488 1483 1482 1474 1471 1467 1455 1450 1448 1455 1458 1446 1446 1471 1471 1473 1463 1457 1448 1434 1430
1527 1524 1522 1520 1521 1515 1514 1516 1529 1547 1537 1541 1540 1534 1532 1534 1530 1529 1530 1525 1529 1532 1533 1509 1496 1488 1483 1475 1472 1470 1471 1498 1482 1468 1455 1452 1461 1485 1482 1477 1472 1462 1455 1447 1441
1525 1522 1520 1518 1518 1516 1515 1519 1544 1546 1546 1544 1541 1537 1538 1539 1538 1536 1534 1540 1532 1537 1548 1535 1521 1500 1493 1488 1488 1483 1484 1501 1508 1468 1453 1444 1467 1482 1482 1481 1474 1468 1458 1447 1437
1523 1521 1519 1518 1516 1514 1516 1547 1560 1549 1548 1548 1544 1545 1545 1544 1545 1541 1543 1546 1538 1537 1552 1544 1524 1504 1498 1494 1490 1489 1501 1488 1480 1469 1464 1466 1477 1474 1477 1476 1468 1461 1457 1447 1438
1522 1521 1520 1519 1516 1516 1520 1551 1551 1549 1548 1547 1550 1549 1550 1549 1552 1552 1552 1545 1545 1539 1538 1543 1534 1509 1502 1496 1495 1497 1494 1496 1490 1481 1461 1473 1486 1494 1488 1481 1475 1465 1462 1454 1442
1521 1522 1521 1519 1518 1517 1544 1548 1549 1549 1548 1549 1550 1551 1551 1556 1553 1552 1554 1544 1542 1540 1537 1539 1546 1524 1508 1509 1514 1506 1516 1506 1499 1487 1485 1467 1496 1507 1503 1496 1486 1476 1470 1459 1454
1519 1523 1521 1520 1522 1531 1545 1543 1546 1547 1548 1547 1550 1550 1552 1551 1557 1557 1551 1547 1545 1544 1546 1539 1548 1551 1522 1511 1511 1515 1518 1514 1506 1497 1492 1483 1503 1508 1505 1497 1490 1483 1471 1462 1452
1518 1521 1521 1520 1534 1545 1542 1545 1545 1547 1547 1547 1550 1550 1550 1551 1564 1549 1545 1545 1544 1544 1545 1544 1554 1562 1534 1525 1516 1522 1521 1519 1511 1503 1506 1507 1497 1504 1502 1500 1495 1486 1476 1467 1458
1518 1523 1521 1520 1526 1532 1541 1545 1547 1546 1547 1547 1548 1551 1553 1554 1552 1554 1551 1547 1547 1546 1545 1545 1558 1555 1558 1545 1538 1538 1536 1524 1519 1516 1522 1511 1509 1507 1502 1498 1494 1489 1479 1466 1463
1515 1519 1521 1531 1531 1531 1536 1542 1546 1547 1548 1547 1549 1549 1553 1568 1564 1558 1552 1551 1547 1549 1547 1548 1562 1547 1539 1531 1530 1535 1540 1532 1532 1528 1528 1522 1511 1515 1513 1507 1500 1497 1489 1478 1469
1511 1515 1521 1528 1530 1532 1538 1543 1542 1543 1546 1546 1548 1547 1549 1558 1556 1562 1556 1554 1554 1549 1549 1550 1560 1548 1546 1526 1527 1533 1538 1537 1533 1530 1527 1523 1516 1520 1516 1510 1503 1496 1490 1483 1473
1509 1511 1513 1528 1531 1534 1536 1539 1539 1539 1544 1545 1545 1547 1548 1548 1549 1549 1549 1550 1552 1553 1549 1551 1551 1561 1557 1533 1537 1543 1553 1546 1539 1540 1537 1533 1531 1522 1513 1511 1507 1501 1492 1486 1480